START_TIME,STEP,MOV.,M29,t_acc.,H22,t_acc.,H26,t_acc.,H30,t_acc.
1979-07-23 00:00:31.490 ,0,0,0.,24.0,0.,24.0,0.,24.0,0.,24.0
1979-07-23 00:00:55.490 ,1,1,0.,24.0,0.,24.0,0.,24.0,0.,24.0
1979-07-23 00:01:19.490 ,1,0,0.,24.0,0.,24.0,0.,24.0,0.,24.0
1979-07-23 00:01:43.490 ,2,1,0.,24.0,0.,24.0,0.,24.0,0.,24.0
1979-07-23 00:02:07.490 ,2,0,0.,24.0,0.,24.0,0.,24.0,0.,24.0
1979-07-23 00:02:31.490 ,3,1,0.,24.0,0.,24.0,0.,24.0,0.,24.0
1979-07-23 00:02:55.490 ,3,0,0.,24.0,0.,24.0,0.,24.0,0.,24.0
1979-07-23 00:03:19.490 ,4,1,0.,24.0,0.,24.0,0.,24.0,0.,24.0
1979-07-23 00:03:43.490 ,4,0,0.,24.0,0.,24.0,0.,24.0,0.,24.0
1979-07-23 00:04:07.490 ,5,1,1.,24.0,0.,24.0,0.,24.0,0.,24.0
1979-07-23 00:04:31.490 ,5,0,0.,24.0,0.,24.0,0.,24.0,0.,24.0
1979-07-23 00:04:55.490 ,6,1,0.,24.0,0.,24.0,0.,24.0,0.,24.0
1979-07-23 00:05:19.490 ,6,0,0.,24.0,0.,24.0,0.,24.0,0.,24.0
1979-07-23 00:05:43.490 ,7,1,0.,24.0,0.,24.0,0.,24.0,0.,24.0
1979-07-23 00:06:07.490 ,7,0,0.,24.0,0.,24.0,0.,24.0,0.,24.0
1979-07-23 00:06:31.490 ,7,1,0.,24.0,0.,24.0,0.,24.0,0.,24.0
1979-07-23 00:06:55.490 ,7,0,0.,24.0,0.,24.0,0.,24.0,0.,24.0
1979-07-23 00:07:19.490 ,6,1,0.,24.0,0.,24.0,0.,24.0,0.,24.0
1979-07-23 00:07:43.490 ,6,0,0.,24.0,0.,24.0,0.,24.0,0.,24.0
1979-07-23 00:08:07.490 ,5,1,0.,24.0,0.,24.0,0.,24.0,0.,24.0
1979-07-23 00:08:31.490 ,5,0,0.,24.0,0.,24.0,0.,24.0,0.,24.0
1979-07-23 00:08:55.490 ,4,1,0.,24.0,0.,24.0,0.,24.0,0.,24.0
1979-07-23 00:09:19.490 ,4,0,0.,24.0,0.,24.0,0.,24.0,0.,24.0
1979-07-23 00:09:43.490 ,3,1,0.,24.0,0.,24.0,0.,24.0,0.,24.0
1979-07-23 00:10:07.490 ,3,0,0.,24.0,0.,24.0,0.,24.0,0.,24.0
1979-07-23 00:10:31.490 ,2,1,0.,24.0,0.,24.0,0.,24.0,0.,24.0
1979-07-23 00:10:55.490 ,2,0,0.,24.0,0.,24.0,0.,24.0,0.,24.0
1979-07-23 00:11:19.490 ,1,1,0.,24.0,0.,24.0,0.,24.0,0.,24.0
1979-07-23 00:11:43.490 ,1,0,0.,24.0,0.,24.0,0.,24.0,0.,24.0
1979-07-23 00:12:07.490 ,0,1,0.,24.0,0.,24.0,0.,24.0,0.,24.0
1979-07-23 00:12:31.490 ,0,0,0.,24.0,0.,24.0,0.,24.0,0.,24.0
1979-07-23 00:12:55.490 ,0,1,0.,24.0,0.,24.0,0.,24.0,0.,24.0
1979-07-23 00:13:19.490 ,0,0,0.,24.0,0.,24.0,0.,24.0,0.,24.0
1979-07-23 00:13:43.490 ,1,1,0.,24.0,0.,24.0,0.,24.0,0.,24.0
1979-07-23 00:14:07.490 ,1,0,0.,24.0,0.,24.0,0.,24.0,0.,24.0
1979-07-23 00:14:31.490 ,2,1,0.,24.0,0.,24.0,0.,24.0,0.,24.0
1979-07-23 00:14:55.490 ,2,0,0.,24.0,0.,24.0,0.,24.0,0.,24.0
1979-07-23 00:15:19.490 ,3,1,0.,24.0,0.,24.0,0.,24.0,0.,24.0
1979-07-23 00:15:43.490 ,3,0,0.,24.0,0.,24.0,0.,24.0,0.,24.0
1979-07-23 00:16:07.490 ,4,1,0.,24.0,0.,24.0,0.,24.0,0.,24.0
1979-07-23 00:16:31.490 ,4,0,0.,24.0,0.,24.0,0.,24.0,0.,24.0
1979-07-23 00:16:55.490 ,5,1,0.,24.0,0.,24.0,0.,24.0,0.,24.0
1979-07-23 00:17:19.490 ,5,0,0.,24.0,0.,24.0,0.,24.0,0.,24.0
1979-07-23 00:17:43.490 ,6,1,0.,24.0,0.,24.0,0.,24.0,0.,24.0
1979-07-23 00:18:07.490 ,6,0,0.,24.0,0.,24.0,0.,24.0,0.,24.0
1979-07-23 00:18:31.490 ,7,0,0.,24.0,0.,24.0,0.,24.0,0.,24.0
1979-07-23 00:18:55.490 ,7,0,0.,24.0,0.,24.0,0.,24.0,0.,24.0
1979-07-23 00:19:19.490 ,5,1,0.,24.0,0.,24.0,0.,24.0,0.,24.0
1979-07-23 00:19:43.490 ,1,1,0.,24.0,0.,24.0,0.,24.0,0.,24.0
1979-07-23 00:20:07.490 ,2,1,0.,24.0,0.,24.0,0.,24.0,0.,24.0
1979-07-23 00:20:31.490 ,6,1,0.,24.0,0.,24.0,0.,24.0,0.,24.0
1979-07-23 00:20:55.490 ,5,1,0.,24.0,0.,24.0,0.,24.0,0.,24.0
1979-07-23 00:21:19.490 ,1,1,0.,24.0,0.,24.0,0.,24.0,0.,24.0
1979-07-23 00:21:43.490 ,2,1,0.,24.0,0.,24.0,0.,24.0,0.,24.0
1979-07-23 00:22:07.490 ,6,1,0.,24.0,0.,24.0,0.,24.0,0.,24.0
1979-07-23 00:22:31.490 ,5,1,0.,24.0,0.,24.0,0.,24.0,0.,24.0
1979-07-23 00:22:55.490 ,1,1,0.,24.0,0.,24.0,0.,24.0,0.,24.0
1979-07-23 00:23:19.490 ,2,1,0.,24.0,0.,24.0,0.,24.0,0.,24.0
1979-07-23 00:23:43.490 ,6,1,0.,24.0,0.,24.0,0.,24.0,0.,24.0
1979-07-23 00:24:07.490 ,5,1,0.,24.0,0.,24.0,0.,24.0,0.,24.0
1979-07-23 00:24:31.490 ,1,1,0.,24.0,0.,24.0,0.,24.0,0.,24.0
1979-07-23 00:24:55.490 ,2,1,0.,24.0,0.,24.0,0.,24.0,0.,24.0
1979-07-23 00:25:19.490 ,6,1,0.,24.0,0.,24.0,0.,24.0,0.,24.0
1979-07-23 00:25:43.490 ,5,1,0.,24.0,0.,24.0,0.,24.0,0.,24.0
1979-07-23 00:26:07.490 ,1,1,0.,24.0,0.,24.0,0.,24.0,0.,24.0
1979-07-23 00:26:31.490 ,2,1,0.,24.0,0.,24.0,0.,24.0,0.,24.0
1979-07-23 00:26:55.490 ,6,1,0.,24.0,0.,24.0,0.,24.0,0.,24.0
1979-07-23 00:27:19.490 ,5,1,0.,24.0,0.,24.0,0.,24.0,0.,24.0
1979-07-23 00:27:43.490 ,1,1,0.,24.0,0.,24.0,0.,24.0,0.,24.0
1979-07-23 00:28:07.490 ,2,1,0.,24.0,0.,24.0,0.,24.0,0.,24.0
1979-07-23 00:28:31.490 ,6,1,0.,24.0,0.,24.0,0.,24.0,0.,24.0
1979-07-23 00:28:55.490 ,5,1,0.,24.0,0.,24.0,0.,24.0,0.,24.0
1979-07-23 00:29:19.490 ,1,1,0.,24.0,0.,24.0,0.,24.0,0.,24.0
1979-07-23 00:29:43.490 ,0,0,0.,24.0,0.,24.0,0.,24.0,0.,24.0
1979-07-23 00:30:07.490 ,0,0,0.,24.0,0.,24.0,0.,24.0,0.,24.0
1979-07-23 00:30:31.490 ,5,1,0.,24.0,0.,24.0,0.,24.0,0.,24.0
1979-07-23 00:30:55.490 ,5,0,0.,24.0,0.,24.0,0.,24.0,0.,24.0
1979-07-23 00:31:19.490 ,4,1,0.,24.0,0.,24.0,0.,24.0,0.,24.0
1979-07-23 00:31:43.490 ,4,0,0.,24.0,0.,24.0,0.,24.0,0.,24.0
1979-07-23 00:32:07.490 ,3,1,0.,24.0,0.,24.0,0.,24.0,0.,24.0
1979-07-23 00:32:31.490 ,3,0,0.,24.0,0.,24.0,0.,24.0,0.,24.0
1979-07-23 00:32:55.490 ,2,1,0.,24.0,0.,24.0,0.,24.0,0.,24.0
1979-07-23 00:33:19.490 ,2,0,0.,24.0,0.,24.0,0.,24.0,0.,24.0
1979-07-23 00:33:43.490 ,1,1,0.,24.0,0.,24.0,0.,24.0,0.,24.0
1979-07-23 00:34:07.490 ,1,0,0.,24.0,0.,24.0,0.,24.0,0.,24.0
1979-07-23 00:34:31.490 ,0,1,0.,24.0,0.,24.0,0.,24.0,0.,24.0
1979-07-23 00:34:55.490 ,0,0,0.,24.0,0.,24.0,0.,24.0,0.,24.0
1979-07-23 00:35:19.490 ,0,1,0.,24.0,0.,24.0,0.,24.0,0.,24.0
1979-07-23 00:35:43.490 ,0,0,0.,24.0,0.,24.0,0.,24.0,0.,24.0
1979-07-23 00:36:07.490 ,1,1,0.,24.0,0.,24.0,0.,24.0,0.,24.0
1979-07-23 00:36:31.490 ,1,0,0.,24.0,0.,24.0,0.,24.0,0.,24.0
1979-07-23 00:36:55.490 ,2,1,0.,24.0,0.,24.0,0.,24.0,0.,24.0
1979-07-23 00:37:19.490 ,2,0,1.,24.0,0.,24.0,0.,24.0,0.,24.0
1979-07-23 00:37:43.490 ,3,1,0.,24.0,0.,24.0,0.,24.0,0.,24.0
1979-07-23 00:38:07.490 ,3,0,0.,24.0,0.,24.0,0.,24.0,0.,24.0
1979-07-23 00:38:31.490 ,4,1,0.,24.0,0.,24.0,0.,24.0,0.,24.0
1979-07-23 00:38:55.490 ,4,0,0.,24.0,0.,24.0,0.,24.0,0.,24.0
1979-07-23 00:39:19.490 ,5,1,0.,24.0,0.,24.0,0.,24.0,0.,24.0
1979-07-23 00:39:43.490 ,5,0,0.,24.0,0.,24.0,0.,24.0,0.,24.0
1979-07-23 00:40:07.490 ,6,1,0.,24.0,0.,24.0,0.,24.0,0.,24.0
1979-07-23 00:40:31.490 ,6,0,0.,24.0,0.,24.0,0.,24.0,0.,24.0
1979-07-23 00:40:55.490 ,7,1,0.,24.0,0.,24.0,0.,24.0,0.,24.0
1979-07-23 00:41:19.490 ,7,0,0.,24.0,0.,24.0,0.,24.0,0.,24.0
1979-07-23 00:41:43.490 ,7,1,0.,24.0,0.,24.0,0.,24.0,0.,24.0
1979-07-23 00:42:07.490 ,7,0,0.,24.0,0.,24.0,0.,24.0,0.,24.0
1979-07-23 00:42:31.490 ,6,1,0.,24.0,0.,24.0,0.,24.0,0.,24.0
1979-07-23 00:42:55.490 ,6,0,0.,24.0,0.,24.0,0.,24.0,0.,24.0
1979-07-23 00:43:19.490 ,5,1,0.,24.0,0.,24.0,0.,24.0,0.,24.0
1979-07-23 00:43:43.490 ,5,0,0.,24.0,0.,24.0,0.,24.0,0.,24.0
1979-07-23 00:44:07.490 ,4,1,0.,24.0,0.,24.0,0.,24.0,0.,24.0
1979-07-23 00:44:31.490 ,4,0,0.,24.0,0.,24.0,0.,24.0,0.,24.0
1979-07-23 00:44:55.490 ,3,1,0.,24.0,0.,24.0,0.,24.0,0.,24.0
1979-07-23 00:45:19.490 ,3,0,0.,24.0,0.,24.0,0.,24.0,0.,24.0
1979-07-23 00:45:43.490 ,2,1,0.,24.0,0.,24.0,0.,24.0,0.,24.0
1979-07-23 00:46:07.490 ,2,0,0.,24.0,0.,24.0,0.,24.0,0.,24.0
1979-07-23 00:46:31.490 ,1,1,0.,24.0,0.,24.0,0.,24.0,0.,24.0
1979-07-23 00:46:55.490 ,1,0,0.,24.0,0.,24.0,0.,24.0,0.,24.0
1979-07-23 00:47:19.490 ,0,1,1.,24.0,0.,24.0,0.,24.0,0.,24.0
1979-07-23 00:47:43.490 ,0,0,0.,24.0,0.,24.0,0.,24.0,0.,24.0
1979-07-23 00:48:07.490 ,0,1,0.,24.0,0.,24.0,0.,24.0,0.,24.0
1979-07-23 00:48:31.490 ,0,0,0.,24.0,0.,24.0,0.,24.0,0.,24.0
1979-07-23 00:48:55.490 ,1,1,0.,24.0,0.,24.0,0.,24.0,0.,24.0
1979-07-23 00:49:19.490 ,1,0,1.,24.0,0.,24.0,0.,24.0,0.,24.0
1979-07-23 00:49:43.490 ,2,1,0.,24.0,0.,24.0,0.,24.0,0.,24.0
1979-07-23 00:50:07.490 ,2,0,0.,24.0,0.,24.0,0.,24.0,0.,24.0
1979-07-23 00:50:31.490 ,3,1,0.,24.0,0.,24.0,0.,24.0,0.,24.0
1979-07-23 00:50:55.490 ,3,0,0.,24.0,0.,24.0,0.,24.0,0.,24.0
1979-07-23 00:51:19.490 ,4,1,0.,24.0,0.,24.0,0.,24.0,0.,24.0
1979-07-23 00:51:43.490 ,4,0,0.,24.0,0.,24.0,0.,24.0,0.,24.0
1979-07-23 00:52:07.490 ,5,1,0.,24.0,0.,24.0,0.,24.0,0.,24.0
1979-07-23 00:52:31.490 ,5,0,0.,24.0,0.,24.0,0.,24.0,0.,24.0
1979-07-23 00:52:55.490 ,6,1,0.,24.0,0.,24.0,0.,24.0,0.,24.0
1979-07-23 00:53:19.490 ,6,0,0.,24.0,0.,24.0,0.,24.0,0.,24.0
1979-07-23 00:53:43.490 ,7,1,0.,24.0,0.,24.0,0.,24.0,0.,24.0
1979-07-23 00:54:07.490 ,7,0,0.,24.0,0.,24.0,0.,24.0,0.,24.0
1979-07-23 00:54:31.490 ,7,1,0.,24.0,0.,24.0,0.,24.0,0.,24.0
1979-07-23 00:54:55.490 ,7,0,0.,24.0,0.,24.0,0.,24.0,0.,24.0
1979-07-23 00:55:19.490 ,6,1,0.,24.0,0.,24.0,0.,24.0,0.,24.0
1979-07-23 00:55:43.490 ,6,0,0.,24.0,0.,24.0,0.,24.0,0.,24.0
1979-07-23 00:56:07.490 ,5,1,0.,24.0,0.,24.0,0.,24.0,0.,24.0
1979-07-23 00:56:31.490 ,5,0,0.,24.0,0.,24.0,0.,24.0,0.,24.0
1979-07-23 00:56:55.490 ,4,1,0.,24.0,0.,24.0,0.,24.0,0.,24.0
1979-07-23 00:57:19.490 ,4,0,0.,24.0,0.,24.0,0.,24.0,0.,24.0
1979-07-23 00:57:43.490 ,3,1,0.,24.0,0.,24.0,0.,24.0,0.,24.0
1979-07-23 00:58:07.490 ,3,0,0.,24.0,0.,24.0,0.,24.0,0.,24.0
1979-07-23 00:58:31.490 ,2,1,0.,24.0,0.,24.0,0.,24.0,0.,24.0
1979-07-23 00:58:55.490 ,2,0,0.,24.0,0.,24.0,0.,24.0,0.,24.0
1979-07-23 00:59:19.490 ,1,1,0.,24.0,0.,24.0,0.,24.0,0.,24.0
1979-07-23 00:59:43.490 ,1,0,0.,24.0,0.,24.0,0.,24.0,0.,24.0
1979-07-23 01:00:07.490 ,0,1,0.,24.0,0.,24.0,0.,24.0,0.,24.0
1979-07-23 01:00:31.490 ,0,0,0.,24.0,0.,24.0,0.,24.0,0.,24.0
1979-07-23 01:00:55.490 ,0,1,1.,24.0,0.,24.0,0.,24.0,0.,24.0
1979-07-23 01:01:19.490 ,0,0,0.,24.0,0.,24.0,0.,24.0,0.,24.0
1979-07-23 01:01:43.490 ,1,1,0.,24.0,0.,24.0,0.,24.0,0.,24.0
1979-07-23 01:02:07.490 ,1,0,0.,24.0,0.,24.0,0.,24.0,0.,24.0
1979-07-23 01:02:31.490 ,2,1,0.,24.0,0.,24.0,0.,24.0,0.,24.0
1979-07-23 01:02:55.490 ,2,0,0.,24.0,0.,24.0,0.,24.0,0.,24.0
1979-07-23 01:03:19.490 ,3,1,0.,24.0,0.,24.0,0.,24.0,0.,24.0
1979-07-23 01:03:43.490 ,3,0,0.,24.0,0.,24.0,0.,24.0,0.,24.0
1979-07-23 01:04:07.490 ,4,1,0.,24.0,0.,24.0,0.,24.0,0.,24.0
1979-07-23 01:04:31.490 ,4,0,0.,24.0,0.,24.0,0.,24.0,0.,24.0
1979-07-23 01:04:55.490 ,5,1,0.,24.0,0.,24.0,0.,24.0,1.,24.0
1979-07-23 01:05:19.490 ,5,0,0.,24.0,0.,24.0,0.,24.0,0.,24.0
1979-07-23 01:05:43.490 ,6,1,0.,24.0,0.,24.0,0.,24.0,0.,24.0
1979-07-23 01:06:07.490 ,6,0,1.,24.0,0.,24.0,0.,24.0,0.,24.0
1979-07-23 01:06:31.490 ,7,0,0.,24.0,0.,24.0,0.,24.0,0.,24.0
1979-07-23 01:06:55.490 ,7,0,0.,24.0,0.,24.0,0.,24.0,0.,24.0
1979-07-23 01:07:19.490 ,5,1,0.,24.0,0.,24.0,0.,24.0,0.,24.0
1979-07-23 01:07:43.490 ,1,1,0.,24.0,0.,24.0,0.,24.0,0.,24.0
1979-07-23 01:08:07.490 ,2,1,0.,24.0,0.,24.0,0.,24.0,0.,24.0
1979-07-23 01:08:31.490 ,6,1,0.,24.0,0.,24.0,0.,24.0,0.,24.0
1979-07-23 01:08:55.490 ,5,1,0.,24.0,0.,24.0,0.,24.0,0.,24.0
1979-07-23 01:09:19.490 ,1,1,0.,24.0,0.,24.0,0.,24.0,0.,24.0
1979-07-23 01:09:43.490 ,2,1,0.,24.0,0.,24.0,0.,24.0,0.,24.0
1979-07-23 01:10:07.490 ,6,1,0.,24.0,0.,24.0,0.,24.0,0.,24.0
1979-07-23 01:10:31.490 ,5,1,0.,24.0,0.,24.0,0.,24.0,0.,24.0
1979-07-23 01:10:55.490 ,1,1,0.,24.0,0.,24.0,0.,24.0,0.,24.0
1979-07-23 01:11:19.490 ,2,1,0.,24.0,0.,24.0,0.,24.0,0.,24.0
1979-07-23 01:11:43.490 ,6,1,0.,24.0,0.,24.0,0.,24.0,0.,24.0
1979-07-23 01:12:07.490 ,5,1,0.,24.0,0.,24.0,0.,24.0,0.,24.0
1979-07-23 01:12:31.490 ,1,1,0.,24.0,0.,24.0,0.,24.0,0.,24.0
1979-07-23 01:12:55.490 ,2,1,0.,24.0,0.,24.0,0.,24.0,0.,24.0
1979-07-23 01:13:19.490 ,6,1,0.,24.0,0.,24.0,0.,24.0,0.,24.0
1979-07-23 01:13:43.490 ,5,1,0.,24.0,0.,24.0,0.,24.0,0.,24.0
1979-07-23 01:14:07.490 ,1,1,0.,24.0,0.,24.0,0.,24.0,0.,24.0
1979-07-23 01:14:31.490 ,2,1,0.,24.0,0.,24.0,0.,24.0,0.,24.0
1979-07-23 01:14:55.490 ,6,1,1.,24.0,0.,24.0,0.,24.0,0.,24.0
1979-07-23 01:15:19.490 ,5,1,0.,24.0,0.,24.0,0.,24.0,0.,24.0
1979-07-23 01:15:43.490 ,1,1,0.,24.0,0.,24.0,0.,24.0,0.,24.0
1979-07-23 01:16:07.490 ,2,1,0.,24.0,0.,24.0,0.,24.0,0.,24.0
1979-07-23 01:16:31.490 ,6,1,0.,24.0,0.,24.0,0.,24.0,0.,24.0
1979-07-23 01:16:55.490 ,5,1,0.,24.0,0.,24.0,0.,24.0,0.,24.0
1979-07-23 01:17:19.490 ,0,0,,0,,0,,0,,0
1979-07-23 01:17:29.690 ,0,1,,0,,0,,0,,0
1979-07-23 01:17:43.490 ,0,0,0.,24.0,0.,24.0,0.,24.0,0.,24.0
1979-07-23 01:18:07.490 ,0,0,0.,24.0,0.,24.0,0.,24.0,0.,24.0
1979-07-23 01:18:31.490 ,5,1,0.,24.0,0.,24.0,0.,24.0,0.,24.0
1979-07-23 01:18:55.490 ,5,0,0.,24.0,0.,24.0,0.,24.0,0.,24.0
1979-07-23 01:19:19.490 ,4,1,0.,24.0,0.,24.0,0.,24.0,0.,24.0
1979-07-23 01:19:43.490 ,4,0,0.,24.0,0.,24.0,0.,24.0,0.,24.0
1979-07-23 01:20:07.490 ,3,1,0.,24.0,0.,24.0,0.,24.0,0.,24.0
1979-07-23 01:20:31.490 ,3,0,0.,24.0,0.,24.0,0.,24.0,0.,24.0
1979-07-23 01:20:55.490 ,2,1,0.,24.0,0.,24.0,0.,24.0,0.,24.0
1979-07-23 01:21:19.490 ,2,0,0.,24.0,0.,24.0,0.,24.0,0.,24.0
1979-07-23 01:21:43.490 ,1,1,0.,24.0,0.,24.0,0.,24.0,0.,24.0
1979-07-23 01:22:07.490 ,1,0,0.,24.0,0.,24.0,0.,24.0,0.,24.0
1979-07-23 01:22:31.490 ,0,1,0.,24.0,0.,24.0,0.,24.0,0.,24.0
1979-07-23 01:22:55.490 ,0,0,0.,24.0,0.,24.0,0.,24.0,0.,24.0
1979-07-23 01:23:19.490 ,0,1,0.,24.0,0.,24.0,0.,24.0,0.,24.0
1979-07-23 01:23:43.490 ,0,0,0.,24.0,0.,24.0,0.,24.0,0.,24.0
1979-07-23 01:24:07.490 ,1,1,0.,24.0,0.,24.0,0.,24.0,0.,24.0
1979-07-23 01:24:31.490 ,1,0,0.,24.0,0.,24.0,0.,24.0,0.,24.0
1979-07-23 01:24:55.490 ,2,1,1.,24.0,0.,24.0,0.,24.0,0.,24.0
1979-07-23 01:25:19.490 ,2,0,0.,24.0,0.,24.0,0.,24.0,0.,24.0
1979-07-23 01:25:43.490 ,3,1,0.,24.0,0.,24.0,0.,24.0,0.,24.0
1979-07-23 01:26:07.490 ,3,0,0.,24.0,0.,24.0,0.,24.0,0.,24.0
1979-07-23 01:26:31.490 ,4,1,0.,24.0,0.,24.0,0.,24.0,0.,24.0
1979-07-23 01:26:55.490 ,4,0,0.,24.0,0.,24.0,0.,24.0,0.,24.0
1979-07-23 01:27:19.490 ,5,1,0.,24.0,0.,24.0,0.,24.0,0.,24.0
1979-07-23 01:27:43.490 ,5,0,0.,24.0,0.,24.0,0.,24.0,0.,24.0
1979-07-23 01:28:07.490 ,6,1,0.,24.0,0.,24.0,0.,24.0,0.,24.0
1979-07-23 01:28:31.490 ,6,0,0.,24.0,0.,24.0,0.,24.0,0.,24.0
1979-07-23 01:28:55.490 ,7,1,0.,24.0,0.,24.0,0.,24.0,0.,24.0
1979-07-23 01:29:19.490 ,7,0,0.,24.0,0.,24.0,0.,24.0,0.,24.0
1979-07-23 01:29:43.490 ,7,1,0.,24.0,0.,24.0,0.,24.0,0.,24.0
1979-07-23 01:30:07.490 ,7,0,0.,24.0,0.,24.0,0.,24.0,0.,24.0
1979-07-23 01:30:31.490 ,6,1,0.,24.0,0.,24.0,0.,24.0,0.,24.0
1979-07-23 01:30:55.490 ,6,0,0.,24.0,0.,24.0,0.,24.0,0.,24.0
1979-07-23 01:31:19.490 ,5,1,0.,24.0,0.,24.0,0.,24.0,0.,24.0
1979-07-23 01:31:43.490 ,5,0,0.,24.0,0.,24.0,0.,24.0,0.,24.0
1979-07-23 01:32:07.490 ,4,1,0.,24.0,0.,24.0,0.,24.0,0.,24.0
1979-07-23 01:32:31.490 ,4,0,0.,24.0,0.,24.0,0.,24.0,0.,24.0
1979-07-23 01:32:55.490 ,3,1,0.,24.0,0.,24.0,0.,24.0,0.,24.0
1979-07-23 01:33:19.490 ,3,0,0.,24.0,0.,24.0,0.,24.0,0.,24.0
1979-07-23 01:33:43.490 ,2,1,0.,24.0,0.,24.0,0.,24.0,0.,24.0
1979-07-23 01:34:07.490 ,2,0,0.,24.0,0.,24.0,0.,24.0,0.,24.0
1979-07-23 01:34:31.490 ,1,1,0.,24.0,0.,24.0,0.,24.0,0.,24.0
1979-07-23 01:34:55.490 ,1,0,0.,24.0,0.,24.0,0.,24.0,0.,24.0
1979-07-23 01:35:19.490 ,0,1,0.,24.0,0.,24.0,0.,24.0,0.,24.0
1979-07-23 01:35:43.490 ,0,0,0.,24.0,0.,24.0,0.,24.0,0.,24.0
1979-07-23 01:36:07.490 ,0,1,0.,24.0,0.,24.0,0.,24.0,0.,24.0
1979-07-23 01:36:31.490 ,0,0,0.,24.0,0.,24.0,0.,24.0,0.,24.0
1979-07-23 01:36:55.490 ,1,1,0.,24.0,0.,24.0,0.,24.0,0.,24.0
1979-07-23 01:37:19.490 ,1,0,0.,24.0,0.,24.0,0.,24.0,0.,24.0
1979-07-23 01:37:43.490 ,2,1,1.,24.0,0.,24.0,0.,24.0,0.,24.0
1979-07-23 01:38:07.490 ,2,0,0.,24.0,0.,24.0,0.,24.0,0.,24.0
1979-07-23 01:38:31.490 ,3,1,0.,24.0,0.,24.0,0.,24.0,0.,24.0
1979-07-23 01:38:55.490 ,3,0,0.,24.0,0.,24.0,0.,24.0,0.,24.0
1979-07-23 01:39:19.490 ,4,1,0.,24.0,0.,24.0,0.,24.0,0.,24.0
1979-07-23 01:39:43.490 ,4,0,0.,24.0,0.,24.0,0.,24.0,0.,24.0
1979-07-23 01:40:07.490 ,5,1,0.,24.0,0.,24.0,0.,24.0,0.,24.0
1979-07-23 01:40:31.490 ,5,0,0.,24.0,0.,24.0,0.,24.0,0.,24.0
1979-07-23 01:40:55.490 ,6,1,0.,24.0,0.,24.0,0.,24.0,0.,24.0
1979-07-23 01:41:19.490 ,6,0,0.,24.0,0.,24.0,0.,24.0,0.,24.0
1979-07-23 01:41:43.490 ,7,1,0.,24.0,0.,24.0,0.,24.0,0.,24.0
1979-07-23 01:42:07.490 ,7,0,0.,24.0,0.,24.0,0.,24.0,0.,24.0
1979-07-23 01:42:31.490 ,7,1,0.,24.0,0.,24.0,0.,24.0,0.,24.0
1979-07-23 01:42:55.490 ,7,0,0.,24.0,0.,24.0,0.,24.0,0.,24.0
1979-07-23 01:43:19.490 ,6,1,0.,24.0,0.,24.0,0.,24.0,0.,24.0
1979-07-23 01:43:43.490 ,6,0,0.,24.0,0.,24.0,0.,24.0,0.,24.0
1979-07-23 01:44:07.490 ,5,1,0.,24.0,0.,24.0,0.,24.0,0.,24.0
1979-07-23 01:44:31.490 ,5,0,0.,24.0,0.,24.0,0.,24.0,0.,24.0
1979-07-23 01:44:55.490 ,4,1,0.,24.0,0.,24.0,0.,24.0,0.,24.0
1979-07-23 01:45:19.490 ,4,0,0.,24.0,0.,24.0,0.,24.0,0.,24.0
1979-07-23 01:45:43.490 ,3,1,0.,24.0,0.,24.0,0.,24.0,0.,24.0
1979-07-23 01:46:07.490 ,3,0,0.,24.0,0.,24.0,0.,24.0,0.,24.0
1979-07-23 01:46:31.490 ,2,1,0.,24.0,0.,24.0,0.,24.0,0.,24.0
1979-07-23 01:46:55.490 ,2,0,0.,24.0,0.,24.0,0.,24.0,0.,24.0
1979-07-23 01:47:19.490 ,1,1,0.,24.0,0.,24.0,0.,24.0,0.,24.0
1979-07-23 01:47:43.490 ,1,0,0.,24.0,0.,24.0,0.,24.0,0.,24.0
1979-07-23 01:48:07.490 ,0,1,0.,24.0,0.,24.0,0.,24.0,0.,24.0
1979-07-23 01:48:31.490 ,0,0,0.,24.0,0.,24.0,0.,24.0,0.,24.0
1979-07-23 01:48:55.480 ,0,1,0.,24.0,0.,24.0,0.,24.0,0.,24.0
1979-07-23 01:49:19.480 ,0,0,1.,24.0,0.,24.0,0.,24.0,0.,24.0
1979-07-23 01:49:43.480 ,1,1,0.,24.0,0.,24.0,0.,24.0,0.,24.0
1979-07-23 01:50:07.480 ,1,0,0.,24.0,0.,24.0,0.,24.0,0.,24.0
1979-07-23 01:50:31.480 ,2,1,0.,24.0,0.,24.0,0.,24.0,0.,24.0
1979-07-23 01:50:55.480 ,2,0,0.,24.0,0.,24.0,0.,24.0,0.,24.0
1979-07-23 01:51:19.480 ,3,1,0.,24.0,0.,24.0,0.,24.0,0.,24.0
1979-07-23 01:51:43.480 ,3,0,0.,24.0,0.,24.0,0.,24.0,0.,24.0
1979-07-23 01:52:07.480 ,4,1,0.,24.0,0.,24.0,0.,24.0,0.,24.0
1979-07-23 01:52:31.480 ,4,0,0.,24.0,0.,24.0,0.,24.0,0.,24.0
1979-07-23 01:52:55.480 ,5,1,0.,24.0,0.,24.0,0.,24.0,0.,24.0
1979-07-23 01:53:19.480 ,5,0,0.,24.0,0.,24.0,0.,24.0,0.,24.0
1979-07-23 01:53:43.480 ,6,1,0.,24.0,0.,24.0,0.,24.0,0.,24.0
1979-07-23 01:54:07.480 ,6,0,0.,24.0,0.,24.0,0.,24.0,0.,24.0
1979-07-23 01:54:31.480 ,7,0,0.,24.0,0.,24.0,0.,24.0,0.,24.0
1979-07-23 01:54:55.480 ,7,0,0.,24.0,0.,24.0,0.,24.0,0.,24.0
1979-07-23 01:55:19.480 ,5,1,0.,24.0,0.,24.0,0.,24.0,0.,24.0
1979-07-23 01:55:43.480 ,1,1,0.,24.0,0.,24.0,0.,24.0,0.,24.0
1979-07-23 01:56:07.480 ,2,1,0.,24.0,0.,24.0,0.,24.0,0.,24.0
1979-07-23 01:56:31.480 ,6,1,0.,24.0,0.,24.0,0.,24.0,0.,24.0
1979-07-23 01:56:55.480 ,5,1,0.,24.0,0.,24.0,0.,24.0,0.,24.0
1979-07-23 01:57:19.480 ,1,1,0.,24.0,0.,24.0,0.,24.0,0.,24.0
1979-07-23 01:57:43.480 ,2,1,0.,24.0,0.,24.0,0.,24.0,0.,24.0
1979-07-23 01:58:07.480 ,6,1,0.,24.0,0.,24.0,0.,24.0,0.,24.0
1979-07-23 01:58:31.480 ,5,1,1.,24.0,0.,24.0,0.,24.0,0.,24.0
1979-07-23 01:58:55.480 ,1,1,0.,24.0,0.,24.0,0.,24.0,0.,24.0
1979-07-23 01:59:19.480 ,2,1,0.,24.0,0.,24.0,0.,24.0,0.,24.0
1979-07-23 01:59:43.480 ,6,1,0.,24.0,0.,24.0,0.,24.0,0.,24.0
1979-07-23 02:00:07.480 ,5,1,0.,24.0,0.,24.0,0.,24.0,0.,24.0
1979-07-23 02:00:31.490 ,1,1,0.,24.0,0.,24.0,0.,24.0,0.,24.0
1979-07-23 02:00:55.490 ,2,1,0.,24.0,0.,24.0,0.,24.0,0.,24.0
1979-07-23 02:01:19.490 ,6,1,0.,24.0,0.,24.0,0.,24.0,0.,24.0
1979-07-23 02:01:43.490 ,5,1,0.,24.0,0.,24.0,0.,24.0,0.,24.0
1979-07-23 02:02:07.490 ,1,1,0.,24.0,0.,24.0,0.,24.0,0.,24.0
1979-07-23 02:02:31.490 ,2,1,0.,24.0,0.,24.0,0.,24.0,0.,24.0
1979-07-23 02:02:55.490 ,6,1,0.,24.0,0.,24.0,0.,24.0,0.,24.0
1979-07-23 02:03:19.490 ,5,1,1.,24.0,0.,24.0,0.,24.0,0.,24.0
1979-07-23 02:03:43.490 ,1,1,0.,24.0,0.,24.0,0.,24.0,0.,24.0
1979-07-23 02:04:07.490 ,2,1,0.,24.0,0.,24.0,0.,24.0,0.,24.0
1979-07-23 02:04:31.480 ,6,1,0.,24.0,0.,24.0,0.,24.0,0.,24.0
1979-07-23 02:04:55.480 ,5,1,0.,24.0,0.,24.0,0.,24.0,0.,24.0
1979-07-23 02:05:19.480 ,1,1,0.,24.0,0.,24.0,0.,24.0,0.,24.0
1979-07-23 02:05:43.480 ,0,0,1.,24.0,0.,24.0,0.,24.0,0.,24.0
1979-07-23 02:06:07.480 ,0,0,0.,24.0,0.,24.0,0.,24.0,0.,24.0
1979-07-23 02:06:31.480 ,5,1,0.,24.0,0.,24.0,0.,24.0,0.,24.0
1979-07-23 02:06:55.480 ,5,0,0.,24.0,0.,24.0,0.,24.0,0.,24.0
1979-07-23 02:07:19.480 ,4,1,0.,24.0,0.,24.0,0.,24.0,0.,24.0
1979-07-23 02:07:43.480 ,4,0,0.,24.0,0.,24.0,0.,24.0,0.,24.0
1979-07-23 02:43:19.480 ,5,1,0.,24.0,0.,24.0,0.,24.0,0.,24.0
1979-07-23 02:43:43.480 ,1,1,0.,24.0,0.,24.0,0.,24.0,0.,24.0
1979-07-23 02:44:31.480 ,6,1,0.,24.0,0.,24.0,0.,24.0,0.,24.0
1979-07-23 02:44:55.480 ,5,1,0.,24.0,0.,24.0,0.,24.0,0.,24.0
1979-07-23 02:45:19.480 ,1,1,0.,24.0,0.,24.0,0.,24.0,0.,24.0
1979-07-23 02:45:43.480 ,2,1,0.,24.0,0.,24.0,0.,24.0,0.,24.0
1979-07-23 02:46:07.480 ,6,1,0.,24.0,0.,24.0,0.,24.0,0.,24.0
1979-07-23 02:46:31.480 ,5,1,0.,24.0,0.,24.0,0.,24.0,0.,24.0
1979-07-23 02:46:55.480 ,1,1,0.,24.0,0.,24.0,0.,24.0,0.,24.0
1979-07-23 02:47:19.480 ,2,1,0.,24.0,0.,24.0,0.,24.0,0.,24.0
1979-07-23 02:47:43.480 ,6,1,0.,24.0,0.,24.0,0.,24.0,0.,24.0
1979-07-23 02:48:07.480 ,5,1,0.,24.0,0.,24.0,0.,24.0,0.,24.0
1979-07-23 02:48:31.480 ,1,1,0.,24.0,0.,24.0,0.,24.0,0.,24.0
1979-07-23 02:48:55.480 ,2,1,0.,24.0,0.,24.0,0.,24.0,0.,24.0
1979-07-23 02:49:19.480 ,6,1,0.,24.0,0.,24.0,0.,24.0,0.,24.0
1979-07-23 02:49:43.480 ,5,1,0.,24.0,0.,24.0,0.,24.0,0.,24.0
1979-07-23 02:50:07.480 ,1,1,0.,24.0,0.,24.0,0.,24.0,0.,24.0
1979-07-23 02:50:31.480 ,2,1,0.,24.0,0.,24.0,0.,24.0,0.,24.0
1979-07-23 02:50:55.480 ,6,1,1.,24.0,0.,24.0,0.,24.0,0.,24.0
1979-07-23 02:51:19.480 ,5,1,0.,24.0,0.,24.0,0.,24.0,0.,24.0
1979-07-23 02:51:43.480 ,1,1,0.,24.0,0.,24.0,0.,24.0,0.,24.0
1979-07-23 02:52:07.480 ,2,1,0.,24.0,0.,24.0,0.,24.0,0.,24.0
1979-07-23 02:52:31.480 ,6,1,0.,24.0,0.,24.0,0.,24.0,0.,24.0
1979-07-23 02:52:55.480 ,5,1,0.,24.0,0.,24.0,0.,24.0,0.,24.0
1979-07-23 02:53:19.480 ,1,1,0.,24.0,0.,24.0,0.,24.0,0.,24.0
1979-07-23 02:53:43.480 ,0,0,0.,24.0,0.,24.0,0.,24.0,0.,24.0
1979-07-23 02:54:07.480 ,0,0,0.,24.0,0.,24.0,0.,24.0,0.,24.0
1979-07-23 02:54:31.480 ,5,1,0.,24.0,0.,24.0,0.,24.0,0.,24.0
1979-07-23 02:54:55.480 ,5,0,0.,24.0,0.,24.0,0.,24.0,0.,24.0
1979-07-23 02:55:19.480 ,4,1,1.,24.0,0.,24.0,0.,24.0,0.,24.0
1979-07-23 02:55:43.480 ,4,0,0.,24.0,0.,24.0,0.,24.0,0.,24.0
1979-07-23 02:56:07.480 ,3,1,0.,24.0,0.,24.0,0.,24.0,0.,24.0
1979-07-23 02:56:31.480 ,3,0,0.,24.0,0.,24.0,0.,24.0,0.,24.0
1979-07-23 02:56:55.480 ,2,1,0.,24.0,0.,24.0,0.,24.0,0.,24.0
1979-07-23 02:57:19.480 ,2,0,0.,24.0,0.,24.0,0.,24.0,0.,24.0
1979-07-23 02:57:43.480 ,1,1,0.,24.0,0.,24.0,0.,24.0,0.,24.0
1979-07-23 02:58:07.480 ,1,0,0.,24.0,0.,24.0,0.,24.0,0.,24.0
1979-07-23 02:58:31.480 ,0,1,0.,24.0,0.,24.0,0.,24.0,0.,24.0
1979-07-23 02:58:55.480 ,0,0,0.,24.0,0.,24.0,0.,24.0,0.,24.0
1979-07-23 02:59:19.480 ,0,1,0.,24.0,0.,24.0,0.,24.0,0.,24.0
1979-07-23 02:59:43.480 ,0,0,0.,24.0,0.,24.0,0.,24.0,0.,24.0
1979-07-23 03:00:07.480 ,1,1,0.,24.0,0.,24.0,0.,24.0,0.,24.0
